owner,sensor,date,latitude,longitude,vertical_datum,sea_water_practical_salinity,qcFlag 
ENP,ioos.station.NOAA.NDBC:LRIF1:1,2014-11-01T00:00:00Z,25.2840,-80.8940,1.5,6.64,1111122 
ENP,ioos.station.NOAA.NDBC:LRIF1:1,2014-11-01T01:00:00Z,25.2840,-80.8940,1.5,6.16,1111122 
ENP,ioos.station.NOAA.NDBC:LRIF1:1,2014-11-01T02:00:00Z,25.2840,-80.8940,1.5,6.45,1111122 
ENP,ioos.station.NOAA.NDBC:LRIF1:1,2014-11-01T04:00:00Z,25.2840,-80.8940,1.5,7.31,1111122 
ENP,ioos.station.NOAA.NDBC:LRIF1:1,2014-11-01T05:00:00Z,25.2840,-80.8940,1.5,7.46,1111122 
ENP,ioos.station.NOAA.NDBC:LRIF1:1,2014-11-01T07:00:00Z,25.2840,-80.8940,1.5,8.02,1111122 
ENP,ioos.station.NOAA.NDBC:LRIF1:1,2014-11-01T08:00:00Z,25.2840,-80.8940,1.5,8.46,1111122 
ENP,ioos.station.NOAA.NDBC:LRIF1:1,2014-11-01T10:00:00Z,25.2840,-80.8940,1.5,9.22,1111122 
ENP,ioos.station.NOAA.NDBC:LRIF1:1,2014-11-01T11:00:00Z,25.2840,-80.8940,1.5,9.35,1111122 
ENP,ioos.station.NOAA.NDBC:LRIF1:1,2014-11-01T12:00:00Z,25.2840,-80.8940,1.5,9.03,1111122 
ENP,ioos.station.NOAA.NDBC:LRIF1:1,2014-11-01T13:00:00Z,25.2840,-80.8940,1.5,8.65,1111122 
ENP,ioos.station.NOAA.NDBC:LRIF1:1,2014-11-01T14:00:00Z,25.2840,-80.8940,1.5,8.46,1111122 
ENP,ioos.station.NOAA.NDBC:LRIF1:1,2014-11-01T15:00:00Z,25.2840,-80.8940,1.5,8.65,1111122 
ENP,ioos.station.NOAA.NDBC:LRIF1:1,2014-11-01T16:00:00Z,25.2840,-80.8940,1.5,8.71,1111122 
ENP,ioos.station.NOAA.NDBC:LRIF1:1,2014-11-01T18:00:00Z,25.2840,-80.8940,1.5,8.4,1111122 
ENP,ioos.station.NOAA.NDBC:LRIF1:1,2014-11-01T19:00:00Z,25.2840,-80.8940,1.5,8.84,1111122 
ENP,ioos.station.NOAA.NDBC:LRIF1:1,2014-11-01T20:00:00Z,25.2840,-80.8940,1.5,9.28,1111122 
ENP,ioos.station.NOAA.NDBC:LRIF1:1,2014-11-01T22:00:00Z,25.2840,-80.8940,1.5,9.73,1111122 
ENP,ioos.station.NOAA.NDBC:LRIF1:1,2014-11-01T23:00:00Z,25.2840,-80.8940,1.5,9.86,1111122 
ENP,ioos.station.NOAA.NDBC:LRIF1:1,2014-11-02T00:00:00Z,25.2840,-80.8940,1.5,9.86,1111122 
ENP,ioos.station.NOAA.NDBC:LRIF1:1,2014-11-02T02:00:00Z,25.2840,-80.8940,1.5,9.86,1111122 
ENP,ioos.station.NOAA.NDBC:LRIF1:1,2014-11-02T03:00:00Z,25.2840,-80.8940,1.5,9.79,1111122 
ENP,ioos.station.NOAA.NDBC:LRIF1:1,2014-11-02T05:00:00Z,25.2840,-80.8940,1.5,9.54,1111122 
ENP,ioos.station.NOAA.NDBC:LRIF1:1,2014-11-02T06:00:00Z,25.2840,-80.8940,1.5,9.41,1111122 
ENP,ioos.station.NOAA.NDBC:LRIF1:1,2014-11-02T07:00:00Z,25.2840,-80.8940,1.5,9.41,1111122 
ENP,ioos.station.NOAA.NDBC:LRIF1:1,2014-11-02T09:00:00Z,25.2840,-80.8940,1.5,9.41,1111122 
ENP,ioos.station.NOAA.NDBC:LRIF1:1,2014-11-02T10:00:00Z,25.2840,-80.8940,1.5,9.41,1111122 
ENP,ioos.station.NOAA.NDBC:LRIF1:1,2014-11-02T11:00:00Z,25.2840,-80.8940,1.5,9.48,1111122 
ENP,ioos.station.NOAA.NDBC:LRIF1:1,2014-11-02T13:00:00Z,25.2840,-80.8940,1.5,8.78,1111122 
ENP,ioos.station.NOAA.NDBC:LRIF1:1,2014-11-02T14:00:00Z,25.2840,-80.8940,1.5,8.59,1111122 
ENP,ioos.station.NOAA.NDBC:LRIF1:1,2014-11-02T15:00:00Z,25.2840,-80.8940,1.5,8.4,1111122 
ENP,ioos.station.NOAA.NDBC:LRIF1:1,2014-11-02T16:00:00Z,25.2840,-80.8940,1.5,8.21,1111122 
ENP,ioos.station.NOAA.NDBC:LRIF1:1,2014-11-02T17:00:00Z,25.2840,-80.8940,1.5,8.05,1111122 
ENP,ioos.station.NOAA.NDBC:LRIF1:1,2014-11-02T18:00:00Z,25.2840,-80.8940,1.5,7.8,1111122 
ENP,ioos.station.NOAA.NDBC:LRIF1:1,2014-11-02T19:00:00Z,25.2840,-80.8940,1.5,7.62,1111122 
ENP,ioos.station.NOAA.NDBC:LRIF1:1,2014-11-02T21:00:00Z,25.2840,-80.8940,1.5,7.31,1111122 
ENP,ioos.station.NOAA.NDBC:LRIF1:1,2014-11-02T22:00:00Z,25.2840,-80.8940,1.5,7.21,1111122 
ENP,ioos.station.NOAA.NDBC:LRIF1:1,2014-11-03T00:00:00Z,25.2840,-80.8940,1.5,6.79,1111122 
ENP,ioos.station.NOAA.NDBC:LRIF1:1,2014-11-03T01:00:00Z,25.2840,-80.8940,1.5,6.53,1111122 
ENP,ioos.station.NOAA.NDBC:LRIF1:1,2014-11-03T02:00:00Z,25.2840,-80.8940,1.5,6.21,1111122 
ENP,ioos.station.NOAA.NDBC:LRIF1:1,2014-11-03T03:00:00Z,25.2840,-80.8940,1.5,5.96,1111122 
ENP,ioos.station.NOAA.NDBC:LRIF1:1,2014-11-03T05:00:00Z,25.2840,-80.8940,1.5,5.64,1111122 
ENP,ioos.station.NOAA.NDBC:LRIF1:1,2014-11-03T06:00:00Z,25.2840,-80.8940,1.5,5.54,1111122 
ENP,ioos.station.NOAA.NDBC:LRIF1:1,2014-11-03T08:00:00Z,25.2840,-80.8940,1.5,5.28,1111122 
ENP,ioos.station.NOAA.NDBC:LRIF1:1,2014-11-03T10:00:00Z,25.2840,-80.8940,1.5,5.21,1111122 
ENP,ioos.station.NOAA.NDBC:LRIF1:1,2014-11-03T11:00:00Z,25.2840,-80.8940,1.5,5.21,1111122 
ENP,ioos.station.NOAA.NDBC:LRIF1:1,2014-11-03T13:00:00Z,25.2840,-80.8940,1.5,4.96,1111122 
ENP,ioos.station.NOAA.NDBC:LRIF1:1,2014-11-03T14:00:00Z,25.2840,-80.8940,1.5,4.72,1111122 
ENP,ioos.station.NOAA.NDBC:LRIF1:1,2014-11-03T15:00:00Z,25.2840,-80.8940,1.5,4.53,1111122 
ENP,ioos.station.NOAA.NDBC:LRIF1:1,2014-11-03T16:00:00Z,25.2840,-80.8940,1.5,4.36,1111122 
ENP,ioos.station.NOAA.NDBC:LRIF1:1,2014-11-03T17:00:00Z,25.2840,-80.8940,1.5,4.23,1111122 
ENP,ioos.station.NOAA.NDBC:LRIF1:1,2014-11-03T18:00:00Z,25.2840,-80.8940,1.5,4.13,1111122 
ENP,ioos.station.NOAA.NDBC:LRIF1:1,2014-11-03T19:00:00Z,25.2840,-80.8940,1.5,4.05,1111122 
ENP,ioos.station.NOAA.NDBC:LRIF1:1,2014-11-03T21:00:00Z,25.2840,-80.8940,1.5,3.92,1111122 
ENP,ioos.station.NOAA.NDBC:LRIF1:1,2014-11-03T22:00:00Z,25.2840,-80.8940,1.5,3.88,1111122 
ENP,ioos.station.NOAA.NDBC:LRIF1:1,2014-11-03T23:00:00Z,25.2840,-80.8940,1.5,3.88,1111122 
ENP,ioos.station.NOAA.NDBC:LRIF1:1,2014-11-04T01:00:00Z,25.2840,-80.8940,1.5,3.77,1111122 
ENP,ioos.station.NOAA.NDBC:LRIF1:1,2014-11-04T02:00:00Z,25.2840,-80.8940,1.5,3.61,1111122 
ENP,ioos.station.NOAA.NDBC:LRIF1:1,2014-11-04T03:00:00Z,25.2840,-80.8940,1.5,3.46,1111122 
ENP,ioos.station.NOAA.NDBC:LRIF1:1,2014-11-04T05:00:00Z,25.2840,-80.8940,1.5,3.2,1111122 
ENP,ioos.station.NOAA.NDBC:LRIF1:1,2014-11-04T06:00:00Z,25.2840,-80.8940,1.5,3.15,1111122 
ENP,ioos.station.NOAA.NDBC:LRIF1:1,2014-11-04T08:00:00Z,25.2840,-80.8940,1.5,3.16,1111122 
ENP,ioos.station.NOAA.NDBC:LRIF1:1,2014-11-04T09:00:00Z,25.2840,-80.8940,1.5,3.42,1111122 
ENP,ioos.station.NOAA.NDBC:LRIF1:1,2014-11-04T10:00:00Z,25.2840,-80.8940,1.5,3.66,1111122 
ENP,ioos.station.NOAA.NDBC:LRIF1:1,2014-11-04T11:00:00Z,25.2840,-80.8940,1.5,3.77,1111122 
ENP,ioos.station.NOAA.NDBC:LRIF1:1,2014-11-04T13:00:00Z,25.2840,-80.8940,1.5,3.37,1111122 
ENP,ioos.station.NOAA.NDBC:LRIF1:1,2014-11-04T14:00:00Z,25.2840,-80.8940,1.5,3.14,1111122 
ENP,ioos.station.NOAA.NDBC:LRIF1:1,2014-11-04T16:00:00Z,25.2840,-80.8940,1.5,2.77,1111122 
ENP,ioos.station.NOAA.NDBC:LRIF1:1,2014-11-04T18:00:00Z,25.2840,-80.8940,1.5,2.64,1111122 
ENP,ioos.station.NOAA.NDBC:LRIF1:1,2014-11-04T19:00:00Z,25.2840,-80.8940,1.5,2.6,1111122 
ENP,ioos.station.NOAA.NDBC:LRIF1:1,2014-11-04T21:00:00Z,25.2840,-80.8940,1.5,2.6,1111122 
ENP,ioos.station.NOAA.NDBC:LRIF1:1,2014-11-04T22:00:00Z,25.2840,-80.8940,1.5,2.81,1111122 
ENP,ioos.station.NOAA.NDBC:LRIF1:1,2014-11-04T23:00:00Z,25.2840,-80.8940,1.5,3.07,1111122 
ENP,ioos.station.NOAA.NDBC:LRIF1:1,2014-11-05T01:00:00Z,25.2840,-80.8940,1.5,2.92,1111122 
ENP,ioos.station.NOAA.NDBC:LRIF1:1,2014-11-05T02:00:00Z,25.2840,-80.8940,1.5,2.81,1111122 
ENP,ioos.station.NOAA.NDBC:LRIF1:1,2014-11-05T03:00:00Z,25.2840,-80.8940,1.5,2.72,1111122 
ENP,ioos.station.NOAA.NDBC:LRIF1:1,2014-11-05T05:00:00Z,25.2840,-80.8940,1.5,2.53,1111122 
ENP,ioos.station.NOAA.NDBC:LRIF1:1,2014-11-05T06:00:00Z,25.2840,-80.8940,1.5,2.5,1111122 
ENP,ioos.station.NOAA.NDBC:LRIF1:1,2014-11-05T07:00:00Z,25.2840,-80.8940,1.5,2.54,1111122 
ENP,ioos.station.NOAA.NDBC:LRIF1:1,2014-11-05T09:00:00Z,25.2840,-80.8940,1.5,3.1,1111122 
ENP,ioos.station.NOAA.NDBC:LRIF1:1,2014-11-05T10:00:00Z,25.2840,-80.8940,1.5,3.31,1111122 
ENP,ioos.station.NOAA.NDBC:LRIF1:1,2014-11-05T11:00:00Z,25.2840,-80.8940,1.5,3.54,1111122 
ENP,ioos.station.NOAA.NDBC:LRIF1:1,2014-11-05T13:00:00Z,25.2840,-80.8940,1.5,5.44,1111122 
ENP,ioos.station.NOAA.NDBC:LRIF1:1,2014-11-05T14:00:00Z,25.2840,-80.8940,1.5,4.29,1111122 
ENP,ioos.station.NOAA.NDBC:LRIF1:1,2014-11-05T15:00:00Z,25.2840,-80.8940,1.5,3.71,1111122 
ENP,ioos.station.NOAA.NDBC:LRIF1:1,2014-11-05T16:00:00Z,25.2840,-80.8940,1.5,3.4,1111122 
ENP,ioos.station.NOAA.NDBC:LRIF1:1,2014-11-05T17:00:00Z,25.2840,-80.8940,1.5,3.23,1111122 
ENP,ioos.station.NOAA.NDBC:LRIF1:1,2014-11-05T19:00:00Z,25.2840,-80.8940,1.5,2.94,1111122 
ENP,ioos.station.NOAA.NDBC:LRIF1:1,2014-11-05T21:00:00Z,25.2840,-80.8940,1.5,2.92,1111122 
ENP,ioos.station.NOAA.NDBC:LRIF1:1,2014-11-05T22:00:00Z,25.2840,-80.8940,1.5,2.99,1111122 
ENP,ioos.station.NOAA.NDBC:LRIF1:1,2014-11-05T23:00:00Z,25.2840,-80.8940,1.5,3.24,1111122 
ENP,ioos.station.NOAA.NDBC:LRIF1:1,2014-11-06T00:00:00Z,25.2840,-80.8940,1.5,3.55,1111122 
ENP,ioos.station.NOAA.NDBC:LRIF1:1,2014-11-06T01:00:00Z,25.2840,-80.8940,1.5,3.92,1111122 
ENP,ioos.station.NOAA.NDBC:LRIF1:1,2014-11-06T02:00:00Z,25.2840,-80.8940,1.5,4.17,1111122 
ENP,ioos.station.NOAA.NDBC:LRIF1:1,2014-11-06T03:00:00Z,25.2840,-80.8940,1.5,3.84,1111122 
ENP,ioos.station.NOAA.NDBC:LRIF1:1,2014-11-06T05:00:00Z,25.2840,-80.8940,1.5,3.44,1111122 
ENP,ioos.station.NOAA.NDBC:LRIF1:1,2014-11-06T06:00:00Z,25.2840,-80.8940,1.5,3.31,1111122 
ENP,ioos.station.NOAA.NDBC:LRIF1:1,2014-11-06T07:00:00Z,25.2840,-80.8940,1.5,3.3,1111122 
ENP,ioos.station.NOAA.NDBC:LRIF1:1,2014-11-06T09:00:00Z,25.2840,-80.8940,1.5,3.67,1111122 
ENP,ioos.station.NOAA.NDBC:LRIF1:1,2014-11-06T10:00:00Z,25.2840,-80.8940,1.5,4.33,1111122 
ENP,ioos.station.NOAA.NDBC:LRIF1:1,2014-11-06T11:00:00Z,25.2840,-80.8940,1.5,5.68,1111122 
ENP,ioos.station.NOAA.NDBC:LRIF1:1,2014-11-06T12:00:00Z,25.2840,-80.8940,1.5,7.16,1111122 
ENP,ioos.station.NOAA.NDBC:LRIF1:1,2014-11-06T13:00:00Z,25.2840,-80.8940,1.5,7.98,1111122 
ENP,ioos.station.NOAA.NDBC:LRIF1:1,2014-11-06T14:00:00Z,25.2840,-80.8940,1.5,8.4,1111122 
ENP,ioos.station.NOAA.NDBC:LRIF1:1,2014-11-06T15:00:00Z,25.2840,-80.8940,1.5,8.46,1111122 
ENP,ioos.station.NOAA.NDBC:LRIF1:1,2014-11-06T17:00:00Z,25.2840,-80.8940,1.5,5.11,1111122 
ENP,ioos.station.NOAA.NDBC:LRIF1:1,2014-11-06T18:00:00Z,25.2840,-80.8940,1.5,5.12,1111122 
ENP,ioos.station.NOAA.NDBC:LRIF1:1,2014-11-06T19:00:00Z,25.2840,-80.8940,1.5,4.87,1111122 
ENP,ioos.station.NOAA.NDBC:LRIF1:1,2014-11-06T21:00:00Z,25.2840,-80.8940,1.5,5.97,1111122 
ENP,ioos.station.NOAA.NDBC:LRIF1:1,2014-11-06T22:00:00Z,25.2840,-80.8940,1.5,5.37,1111122 
ENP,ioos.station.NOAA.NDBC:LRIF1:1,2014-11-06T23:00:00Z,25.2840,-80.8940,1.5,5.44,1111122 
ENP,ioos.station.NOAA.NDBC:LRIF1:1,2014-11-07T01:00:00Z,25.2840,-80.8940,1.5,6.85,1111122 
ENP,ioos.station.NOAA.NDBC:LRIF1:1,2014-11-07T02:00:00Z,25.2840,-80.8940,1.5,7.6,1111122 
ENP,ioos.station.NOAA.NDBC:LRIF1:1,2014-11-07T03:00:00Z,25.2840,-80.8940,1.5,8.19,1111122 
ENP,ioos.station.NOAA.NDBC:LRIF1:1,2014-11-07T05:00:00Z,25.2840,-80.8940,1.5,8.0,1111122 
ENP,ioos.station.NOAA.NDBC:LRIF1:1,2014-11-07T06:00:00Z,25.2840,-80.8940,1.5,7.63,1111122 
ENP,ioos.station.NOAA.NDBC:LRIF1:1,2014-11-07T07:00:00Z,25.2840,-80.8940,1.5,7.72,1111122 
ENP,ioos.station.NOAA.NDBC:LRIF1:1,2014-11-07T09:00:00Z,25.2840,-80.8940,1.5,7.74,1111122 
ENP,ioos.station.NOAA.NDBC:LRIF1:1,2014-11-07T10:00:00Z,25.2840,-80.8940,1.5,8.07,1111122 
ENP,ioos.station.NOAA.NDBC:LRIF1:1,2014-11-07T11:00:00Z,25.2840,-80.8940,1.5,8.71,1111122 
ENP,ioos.station.NOAA.NDBC:LRIF1:1,2014-11-07T12:00:00Z,25.2840,-80.8940,1.5,9.48,1111122 
ENP,ioos.station.NOAA.NDBC:LRIF1:1,2014-11-07T13:00:00Z,25.2840,-80.8940,1.5,9.79,1111122 
ENP,ioos.station.NOAA.NDBC:LRIF1:1,2014-11-07T14:00:00Z,25.2840,-80.8940,1.5,9.99,1111122 
ENP,ioos.station.NOAA.NDBC:LRIF1:1,2014-11-07T16:00:00Z,25.2840,-80.8940,1.5,10.18,1111122 
ENP,ioos.station.NOAA.NDBC:LRIF1:1,2014-11-07T17:00:00Z,25.2840,-80.8940,1.5,10.05,1111122 
ENP,ioos.station.NOAA.NDBC:LRIF1:1,2014-11-07T18:00:00Z,25.2840,-80.8940,1.5,10.05,1111122 
ENP,ioos.station.NOAA.NDBC:LRIF1:1,2014-11-07T19:00:00Z,25.2840,-80.8940,1.5,9.86,1111122 
ENP,ioos.station.NOAA.NDBC:LRIF1:1,2014-11-07T21:00:00Z,25.2840,-80.8940,1.5,9.67,1111122 
ENP,ioos.station.NOAA.NDBC:LRIF1:1,2014-11-07T22:00:00Z,25.2840,-80.8940,1.5,9.28,1111122 
ENP,ioos.station.NOAA.NDBC:LRIF1:1,2014-11-07T23:00:00Z,25.2840,-80.8940,1.5,8.9,1111122 
ENP,ioos.station.NOAA.NDBC:LRIF1:1,2014-11-08T01:00:00Z,25.2840,-80.8940,1.5,9.16,1111122 
ENP,ioos.station.NOAA.NDBC:LRIF1:1,2014-11-08T02:00:00Z,25.2840,-80.8940,1.5,9.54,1111122 
ENP,ioos.station.NOAA.NDBC:LRIF1:1,2014-11-08T03:00:00Z,25.2840,-80.8940,1.5,9.79,1111122 
ENP,ioos.station.NOAA.NDBC:LRIF1:1,2014-11-08T05:00:00Z,25.2840,-80.8940,1.5,10.24,1111122 
ENP,ioos.station.NOAA.NDBC:LRIF1:1,2014-11-08T07:00:00Z,25.2840,-80.8940,1.5,9.99,1111122 
ENP,ioos.station.NOAA.NDBC:LRIF1:1,2014-11-08T09:00:00Z,25.2840,-80.8940,1.5,9.92,1111122 
ENP,ioos.station.NOAA.NDBC:LRIF1:1,2014-11-08T10:00:00Z,25.2840,-80.8940,1.5,9.99,1111122 
ENP,ioos.station.NOAA.NDBC:LRIF1:1,2014-11-08T11:00:00Z,25.2840,-80.8940,1.5,10.05,1111122 
ENP,ioos.station.NOAA.NDBC:LRIF1:1,2014-11-08T12:00:00Z,25.2840,-80.8940,1.5,10.31,1111122 
ENP,ioos.station.NOAA.NDBC:LRIF1:1,2014-11-08T13:00:00Z,25.2840,-80.8940,1.5,10.63,1111122 
ENP,ioos.station.NOAA.NDBC:LRIF1:1,2014-11-08T14:00:00Z,25.2840,-80.8940,1.5,10.88,1111122 
ENP,ioos.station.NOAA.NDBC:LRIF1:1,2014-11-08T16:00:00Z,25.2840,-80.8940,1.5,11.08,1111122 
ENP,ioos.station.NOAA.NDBC:LRIF1:1,2014-11-08T17:00:00Z,25.2840,-80.8940,1.5,11.14,1111122 
ENP,ioos.station.NOAA.NDBC:LRIF1:1,2014-11-08T19:00:00Z,25.2840,-80.8940,1.5,11.01,1111122 
ENP,ioos.station.NOAA.NDBC:LRIF1:1,2014-11-08T20:00:00Z,25.2840,-80.8940,1.5,10.82,1111122 
ENP,ioos.station.NOAA.NDBC:LRIF1:1,2014-11-08T21:00:00Z,25.2840,-80.8940,1.5,10.63,1111122 
ENP,ioos.station.NOAA.NDBC:LRIF1:1,2014-11-08T22:00:00Z,25.2840,-80.8940,1.5,10.56,1111122 
ENP,ioos.station.NOAA.NDBC:LRIF1:1,2014-11-09T00:00:00Z,25.2840,-80.8940,1.5,10.11,1111122 
ENP,ioos.station.NOAA.NDBC:LRIF1:1,2014-11-09T01:00:00Z,25.2840,-80.8940,1.5,10.05,1111122 
ENP,ioos.station.NOAA.NDBC:LRIF1:1,2014-11-09T02:00:00Z,25.2840,-80.8940,1.5,10.18,1111122 
ENP,ioos.station.NOAA.NDBC:LRIF1:1,2014-11-09T03:00:00Z,25.2840,-80.8940,1.5,10.31,1111122 
ENP,ioos.station.NOAA.NDBC:LRIF1:1,2014-11-09T05:00:00Z,25.2840,-80.8940,1.5,10.31,1111122 
ENP,ioos.station.NOAA.NDBC:LRIF1:1,2014-11-09T06:00:00Z,25.2840,-80.8940,1.5,9.99,1111122 
ENP,ioos.station.NOAA.NDBC:LRIF1:1,2014-11-09T07:00:00Z,25.2840,-80.8940,1.5,9.92,1111122 
ENP,ioos.station.NOAA.NDBC:LRIF1:1,2014-11-09T09:00:00Z,25.2840,-80.8940,1.5,9.99,1111122 
ENP,ioos.station.NOAA.NDBC:LRIF1:1,2014-11-09T10:00:00Z,25.2840,-80.8940,1.5,9.86,1111122 
ENP,ioos.station.NOAA.NDBC:LRIF1:1,2014-11-09T11:00:00Z,25.2840,-80.8940,1.5,9.86,1111122 
ENP,ioos.station.NOAA.NDBC:LRIF1:1,2014-11-09T14:00:00Z,25.2840,-80.8940,1.5,10.56,1111122 
ENP,ioos.station.NOAA.NDBC:LRIF1:1,2014-11-09T15:00:00Z,25.2840,-80.8940,1.5,10.88,1111122 
ENP,ioos.station.NOAA.NDBC:LRIF1:1,2014-11-09T17:00:00Z,25.2840,-80.8940,1.5,11.21,1111122 
ENP,ioos.station.NOAA.NDBC:LRIF1:1,2014-11-09T18:00:00Z,25.2840,-80.8940,1.5,11.01,1111122 
ENP,ioos.station.NOAA.NDBC:LRIF1:1,2014-11-09T19:00:00Z,25.2840,-80.8940,1.5,9.99,1111122 
ENP,ioos.station.NOAA.NDBC:LRIF1:1,2014-11-09T20:00:00Z,25.2840,-80.8940,1.5,9.67,1111122 
ENP,ioos.station.NOAA.NDBC:LRIF1:1,2014-11-09T21:00:00Z,25.2840,-80.8940,1.5,9.6,1111122 
ENP,ioos.station.NOAA.NDBC:LRIF1:1,2014-11-09T22:00:00Z,25.2840,-80.8940,1.5,9.54,1111122 
ENP,ioos.station.NOAA.NDBC:LRIF1:1,2014-11-10T00:00:00Z,25.2840,-80.8940,1.5,9.6,1111122 
ENP,ioos.station.NOAA.NDBC:LRIF1:1,2014-11-10T01:00:00Z,25.2840,-80.8940,1.5,9.67,1111122 
ENP,ioos.station.NOAA.NDBC:LRIF1:1,2014-11-10T02:00:00Z,25.2840,-80.8940,1.5,9.86,1111122 
ENP,ioos.station.NOAA.NDBC:LRIF1:1,2014-11-10T03:00:00Z,25.2840,-80.8940,1.5,9.99,1111122 
ENP,ioos.station.NOAA.NDBC:LRIF1:1,2014-11-10T04:00:00Z,25.2840,-80.8940,1.5,10.05,1111122 
ENP,ioos.station.NOAA.NDBC:LRIF1:1,2014-11-10T06:00:00Z,25.2840,-80.8940,1.5,9.22,1111122 
ENP,ioos.station.NOAA.NDBC:LRIF1:1,2014-11-10T08:00:00Z,25.2840,-80.8940,1.5,8.97,1111122 
ENP,ioos.station.NOAA.NDBC:LRIF1:1,2014-11-10T09:00:00Z,25.2840,-80.8940,1.5,8.84,1111122 
ENP,ioos.station.NOAA.NDBC:LRIF1:1,2014-11-10T10:00:00Z,25.2840,-80.8940,1.5,8.84,1111122 
ENP,ioos.station.NOAA.NDBC:LRIF1:1,2014-11-10T11:00:00Z,25.2840,-80.8940,1.5,8.9,1111122 
ENP,ioos.station.NOAA.NDBC:LRIF1:1,2014-11-10T12:00:00Z,25.2840,-80.8940,1.5,9.03,1111122 
ENP,ioos.station.NOAA.NDBC:LRIF1:1,2014-11-10T13:00:00Z,25.2840,-80.8940,1.5,9.28,1111122 
ENP,ioos.station.NOAA.NDBC:LRIF1:1,2014-11-10T14:00:00Z,25.2840,-80.8940,1.5,9.6,1111122 
ENP,ioos.station.NOAA.NDBC:LRIF1:1,2014-11-10T16:00:00Z,25.2840,-80.8940,1.5,10.31,1111122 
ENP,ioos.station.NOAA.NDBC:LRIF1:1,2014-11-10T17:00:00Z,25.2840,-80.8940,1.5,10.43,1111122 
ENP,ioos.station.NOAA.NDBC:LRIF1:1,2014-11-10T18:00:00Z,25.2840,-80.8940,1.5,10.24,1111122 
ENP,ioos.station.NOAA.NDBC:LRIF1:1,2014-11-10T20:00:00Z,25.2840,-80.8940,1.5,9.09,1111122 
ENP,ioos.station.NOAA.NDBC:LRIF1:1,2014-11-10T21:00:00Z,25.2840,-80.8940,1.5,8.9,1111122 
ENP,ioos.station.NOAA.NDBC:LRIF1:1,2014-11-10T22:00:00Z,25.2840,-80.8940,1.5,8.84,1111122 
ENP,ioos.station.NOAA.NDBC:LRIF1:1,2014-11-10T23:00:00Z,25.2840,-80.8940,1.5,8.84,1111122 
ENP,ioos.station.NOAA.NDBC:LRIF1:1,2014-11-11T01:00:00Z,25.2840,-80.8940,1.5,9.03,1111122 
ENP,ioos.station.NOAA.NDBC:LRIF1:1,2014-11-11T02:00:00Z,25.2840,-80.8940,1.5,9.16,1111122 
ENP,ioos.station.NOAA.NDBC:LRIF1:1,2014-11-11T03:00:00Z,25.2840,-80.8940,1.5,9.41,1111122 
ENP,ioos.station.NOAA.NDBC:LRIF1:1,2014-11-11T05:00:00Z,25.2840,-80.8940,1.5,9.86,1111122 
ENP,ioos.station.NOAA.NDBC:LRIF1:1,2014-11-11T06:00:00Z,25.2840,-80.8940,1.5,9.79,1111122 
ENP,ioos.station.NOAA.NDBC:LRIF1:1,2014-11-11T07:00:00Z,25.2840,-80.8940,1.5,9.48,1111122 
ENP,ioos.station.NOAA.NDBC:LRIF1:1,2014-11-11T09:00:00Z,25.2840,-80.8940,1.5,9.16,1111122 
ENP,ioos.station.NOAA.NDBC:LRIF1:1,2014-11-11T10:00:00Z,25.2840,-80.8940,1.5,9.09,1111122 
ENP,ioos.station.NOAA.NDBC:LRIF1:1,2014-11-11T11:00:00Z,25.2840,-80.8940,1.5,9.03,1111122 
ENP,ioos.station.NOAA.NDBC:LRIF1:1,2014-11-11T13:00:00Z,25.2840,-80.8940,1.5,9.35,1111122 
ENP,ioos.station.NOAA.NDBC:LRIF1:1,2014-11-11T14:00:00Z,25.2840,-80.8940,1.5,9.54,1111122 
ENP,ioos.station.NOAA.NDBC:LRIF1:1,2014-11-11T15:00:00Z,25.2840,-80.8940,1.5,9.79,1111122 
ENP,ioos.station.NOAA.NDBC:LRIF1:1,2014-11-11T16:00:00Z,25.2840,-80.8940,1.5,10.11,1111122 
ENP,ioos.station.NOAA.NDBC:LRIF1:1,2014-11-11T17:00:00Z,25.2840,-80.8940,1.5,10.24,1111122 
ENP,ioos.station.NOAA.NDBC:LRIF1:1,2014-11-11T18:00:00Z,25.2840,-80.8940,1.5,10.18,1111122 
ENP,ioos.station.NOAA.NDBC:LRIF1:1,2014-11-11T19:00:00Z,25.2840,-80.8940,1.5,9.86,1111122 
ENP,ioos.station.NOAA.NDBC:LRIF1:1,2014-11-11T20:00:00Z,25.2840,-80.8940,1.5,9.54,1111122 
ENP,ioos.station.NOAA.NDBC:LRIF1:1,2014-11-11T21:00:00Z,25.2840,-80.8940,1.5,9.28,1111122 
ENP,ioos.station.NOAA.NDBC:LRIF1:1,2014-11-11T22:00:00Z,25.2840,-80.8940,1.5,9.22,1111122 
ENP,ioos.station.NOAA.NDBC:LRIF1:1,2014-11-11T23:00:00Z,25.2840,-80.8940,1.5,9.09,1111122 
ENP,ioos.station.NOAA.NDBC:LRIF1:1,2014-11-12T20:00:00Z,25.2840,-80.8940,1.5,9.54,1111122 
ENP,ioos.station.NOAA.NDBC:LRIF1:1,2014-11-12T21:00:00Z,25.2840,-80.8940,1.5,9.41,1111122 
ENP,ioos.station.NOAA.NDBC:LRIF1:1,2014-11-12T22:00:00Z,25.2840,-80.8940,1.5,9.41,1111122 
ENP,ioos.station.NOAA.NDBC:LRIF1:1,2014-11-13T00:00:00Z,25.2840,-80.8940,1.5,9.35,1111122 
ENP,ioos.station.NOAA.NDBC:LRIF1:1,2014-11-13T01:00:00Z,25.2840,-80.8940,1.5,9.28,1111122 
ENP,ioos.station.NOAA.NDBC:LRIF1:1,2014-11-13T02:00:00Z,25.2840,-80.8940,1.5,9.35,1111122 
ENP,ioos.station.NOAA.NDBC:LRIF1:1,2014-11-13T03:00:00Z,25.2840,-80.8940,1.5,9.35,1111122 
ENP,ioos.station.NOAA.NDBC:LRIF1:1,2014-11-13T05:00:00Z,25.2840,-80.8940,1.5,9.48,1111122 
ENP,ioos.station.NOAA.NDBC:LRIF1:1,2014-11-13T06:00:00Z,25.2840,-80.8940,1.5,9.6,1111122 
ENP,ioos.station.NOAA.NDBC:LRIF1:1,2014-11-13T07:00:00Z,25.2840,-80.8940,1.5,9.6,1111122 
ENP,ioos.station.NOAA.NDBC:LRIF1:1,2014-11-13T08:00:00Z,25.2840,-80.8940,1.5,9.54,1111122 
ENP,ioos.station.NOAA.NDBC:LRIF1:1,2014-11-13T09:00:00Z,25.2840,-80.8940,1.5,9.41,1111122 
ENP,ioos.station.NOAA.NDBC:LRIF1:1,2014-11-13T10:00:00Z,25.2840,-80.8940,1.5,9.41,1111122 
ENP,ioos.station.NOAA.NDBC:LRIF1:1,2014-11-13T11:00:00Z,25.2840,-80.8940,1.5,9.28,1111122 
ENP,ioos.station.NOAA.NDBC:LRIF1:1,2014-11-13T12:00:00Z,25.2840,-80.8940,1.5,9.16,1111122 
ENP,ioos.station.NOAA.NDBC:LRIF1:1,2014-11-13T13:00:00Z,25.2840,-80.8940,1.5,9.09,1111122 
ENP,ioos.station.NOAA.NDBC:LRIF1:1,2014-11-13T14:00:00Z,25.2840,-80.8940,1.5,9.09,1111122 
ENP,ioos.station.NOAA.NDBC:LRIF1:1,2014-11-13T16:00:00Z,25.2840,-80.8940,1.5,9.16,1111122 
ENP,ioos.station.NOAA.NDBC:LRIF1:1,2014-11-13T17:00:00Z,25.2840,-80.8940,1.5,9.22,1111122 
ENP,ioos.station.NOAA.NDBC:LRIF1:1,2014-11-13T18:00:00Z,25.2840,-80.8940,1.5,9.22,1111122 
ENP,ioos.station.NOAA.NDBC:LRIF1:1,2014-11-13T19:00:00Z,25.2840,-80.8940,1.5,9.22,1111122 
ENP,ioos.station.NOAA.NDBC:LRIF1:1,2014-11-13T22:00:00Z,25.2840,-80.8940,1.5,8.9,1111122 
ENP,ioos.station.NOAA.NDBC:LRIF1:1,2014-11-13T23:00:00Z,25.2840,-80.8940,1.5,8.9,1111122 
ENP,ioos.station.NOAA.NDBC:LRIF1:1,2014-11-14T00:00:00Z,25.2840,-80.8940,1.5,8.78,1111122 
ENP,ioos.station.NOAA.NDBC:LRIF1:1,2014-11-14T01:00:00Z,25.2840,-80.8940,1.5,8.65,1111122 
ENP,ioos.station.NOAA.NDBC:LRIF1:1,2014-11-14T02:00:00Z,25.2840,-80.8940,1.5,8.65,1111122 
ENP,ioos.station.NOAA.NDBC:LRIF1:1,2014-11-14T03:00:00Z,25.2840,-80.8940,1.5,8.71,1111122 
ENP,ioos.station.NOAA.NDBC:LRIF1:1,2014-11-14T05:00:00Z,25.2840,-80.8940,1.5,8.84,1111122 
ENP,ioos.station.NOAA.NDBC:LRIF1:1,2014-11-14T06:00:00Z,25.2840,-80.8940,1.5,8.9,1111122 
ENP,ioos.station.NOAA.NDBC:LRIF1:1,2014-11-14T07:00:00Z,25.2840,-80.8940,1.5,8.97,1111122 
ENP,ioos.station.NOAA.NDBC:LRIF1:1,2014-11-14T09:00:00Z,25.2840,-80.8940,1.5,9.03,1111122 
ENP,ioos.station.NOAA.NDBC:LRIF1:1,2014-11-14T10:00:00Z,25.2840,-80.8940,1.5,8.9,1111122 
ENP,ioos.station.NOAA.NDBC:LRIF1:1,2014-11-14T11:00:00Z,25.2840,-80.8940,1.5,8.84,1111122 
ENP,ioos.station.NOAA.NDBC:LRIF1:1,2014-11-14T13:00:00Z,25.2840,-80.8940,1.5,8.53,1111122 
ENP,ioos.station.NOAA.NDBC:LRIF1:1,2014-11-14T14:00:00Z,25.2840,-80.8940,1.5,8.46,1111122 
ENP,ioos.station.NOAA.NDBC:LRIF1:1,2014-11-14T16:00:00Z,25.2840,-80.8940,1.5,8.59,1111122 
ENP,ioos.station.NOAA.NDBC:LRIF1:1,2014-11-14T17:00:00Z,25.2840,-80.8940,1.5,8.65,1111122 
ENP,ioos.station.NOAA.NDBC:LRIF1:1,2014-11-14T18:00:00Z,25.2840,-80.8940,1.5,8.71,1111122 
ENP,ioos.station.NOAA.NDBC:LRIF1:1,2014-11-14T19:00:00Z,25.2840,-80.8940,1.5,8.84,1111122 
ENP,ioos.station.NOAA.NDBC:LRIF1:1,2014-11-14T21:00:00Z,25.2840,-80.8940,1.5,8.84,1111122 
ENP,ioos.station.NOAA.NDBC:LRIF1:1,2014-11-14T22:00:00Z,25.2840,-80.8940,1.5,8.65,1111122 
ENP,ioos.station.NOAA.NDBC:LRIF1:1,2014-11-15T00:00:00Z,25.2840,-80.8940,1.5,8.27,1111122 
ENP,ioos.station.NOAA.NDBC:LRIF1:1,2014-11-15T01:00:00Z,25.2840,-80.8940,1.5,8.21,1111122 
ENP,ioos.station.NOAA.NDBC:LRIF1:1,2014-11-15T02:00:00Z,25.2840,-80.8940,1.5,8.19,1111122 
ENP,ioos.station.NOAA.NDBC:LRIF1:1,2014-11-15T03:00:00Z,25.2840,-80.8940,1.5,8.17,1111122 
ENP,ioos.station.NOAA.NDBC:LRIF1:1,2014-11-15T05:00:00Z,25.2840,-80.8940,1.5,8.4,1111122 
ENP,ioos.station.NOAA.NDBC:LRIF1:1,2014-11-15T06:00:00Z,25.2840,-80.8940,1.5,8.53,1111122 
ENP,ioos.station.NOAA.NDBC:LRIF1:1,2014-11-15T07:00:00Z,25.2840,-80.8940,1.5,8.65,1111122 
ENP,ioos.station.NOAA.NDBC:LRIF1:1,2014-11-15T09:00:00Z,25.2840,-80.8940,1.5,8.84,1111122 
ENP,ioos.station.NOAA.NDBC:LRIF1:1,2014-11-15T10:00:00Z,25.2840,-80.8940,1.5,8.84,1111122 
ENP,ioos.station.NOAA.NDBC:LRIF1:1,2014-11-15T11:00:00Z,25.2840,-80.8940,1.5,8.65,1111122 
ENP,ioos.station.NOAA.NDBC:LRIF1:1,2014-11-15T12:00:00Z,25.2840,-80.8940,1.5,8.4,1111122 
ENP,ioos.station.NOAA.NDBC:LRIF1:1,2014-11-15T13:00:00Z,25.2840,-80.8940,1.5,8.34,1111122 
ENP,ioos.station.NOAA.NDBC:LRIF1:1,2014-11-15T14:00:00Z,25.2840,-80.8940,1.5,8.17,1111122 
ENP,ioos.station.NOAA.NDBC:LRIF1:1,2014-11-15T15:00:00Z,25.2840,-80.8940,1.5,8.09,1111122 
ENP,ioos.station.NOAA.NDBC:LRIF1:1,2014-11-15T16:00:00Z,25.2840,-80.8940,1.5,7.99,1111122 
ENP,ioos.station.NOAA.NDBC:LRIF1:1,2014-11-15T17:00:00Z,25.2840,-80.8940,1.5,8.01,1111122 